Weather in Dubki

Russia / Oryol Oblast     52°26′43″N   37°32′31″E
temp.,
°C
wind,
m/s
gust,
m/s
humid.,
%
clouds,
%
prec.,
mm/h
press.,
hPa
HPBL,
m
25 february, thu
thu2500:00−12ssw3796100 0.1 1032176
03:00−9ssw4795100 0.3 1030255
06:00−8sw5995100 0.1 1027273
09:00−1wsw61295100 0.1 1024638
12:00+1wsw61299100 0.0 1021407
15:00+2w715100100 0.2 1019453
18:00+2w613100100 0.1 1019289
21:00+2wnw511100100 0.8 1019268
26 february, fri
fri2600:00+2wnw612100100 0.1 1019247
03:00+2wnw511100100 0.2 1019214
06:00+2w512100100 0.0 1017239
09:00+2w61298100 0.0 1016341
12:00+2wsw714100100 0.0 1015445
15:00+2w71599100 0.2 1013405
18:00+2w715100100 0.2 1010445
21:00+2wnw61496100 0.2 1011502
27 february, sat
sat2700:00+1w51295100 0.0 1010468
03:00+1w51193100 0.1 1009423
06:00+1w61295100 0.1 1007523
09:00+1wnw61197100 0.1 1007536
12:00+1w611100100 0.2 1006507
15:00+1wnw61099100 0.3 1007498
18:00+1nw51195100 0.1 1008515
21:000nw6129499 0.2 1010610
28 february, sun
sun2800:00−3n5109070 0.1 1012417
03:00−4n598783 0.1 1015661
06:00−7n499278 0.0 1016496
09:00−7n599187 0.0 1018529
12:00−5n4890100 0.0 1019566
15:00−4nnw5789100 0.1 1020669
18:00−4n5888100 0.1 1021659
21:00−4n4889100 0.1 1023631
1 march, mon
mon100:00−5nnw379498 0.0 1025264
03:00−5nnw359599 0.1 1026105
06:00−7nnw359474 0.0 1028129
09:00−6nw369580 0.0 1029183
12:00−4nw46890 0.0 1029433
15:00−3w588826 0.0 1028514
18:00−4w51092100 0.0 1026353
21:00−2w5129498 0.0 1025450